Volver al catálogo

SHIYAN 6

SY-6

ActivoCienciaSSO
NORAD 43711·PAYLOAD·🇨🇳 China

Lanzado Nov 19, 2018 desde Jiuquan Satellite Launch Center

Loading…

Próximos Pases (próximas 24 horas)

TLE

ActualizadoSource: Space-Track

Época: Sep 14, 2026, 07:15 UTC

1 43711U 18094B   26257.30262281  .00003836  00000-0  13293-3 0  9995
2 43711  97.3598 270.6225 0012381 183.8560 176.2587 15.30372393435115

Sigue SHIYAN 6 en tiempo real con AllMySat

Download on the App Store